Tracking 29493 objects as of 8-Sep-2024
HD Live streaming from Space Station
objects crossing your sky now

GOES 1 AKM

Track GOES 1 AKM now!


NORAD ID: 20962
Int'l Code: 1975-100F
Perigee: 34,190.8 km
Apogee: 36,477.1 km
Inclination: 3.9 °
Period: 1,412.7 minutes
Semi major axis: 41704 km
RCS: 0.3981 m2 (medium)
Launch date: October 16, 1975
Source: United States (US)
Launch site: AIR FORCE EASTERN TEST RANGE (AFETR)

Note: This is a ROCKET BODY
Your satellite tracking list
Your tracking list is empty




NASA's NSSDC Master Catalog

Two Line Element Set (TLE):
1 20962U 75100F   24252.12517184 -.00000170  00000-0  00000+0 0  9994
2 20962   3.9385 268.6539 0274103  64.6166 297.9503  1.01934619129533
Source of the keplerian elements: AFSPC